EW0407 Weather Reports


time (UTC)temp
F
wind
direction
speed
knots
gust
knots
rain 1hr
in
rain 24hr
in
rain mn
in
humidity
%
barometer
mb
20260507211420 64 0.0 0.9 0.00 0.00 0.00 51 1023.8
20260507210443 64 126 0.9 0.9 0.00 0.00 0.00 52 1023.7
20260507205521 64 124 1.7 2.6 0.00 0.00 0.00 51 1023.5
20260507204421 64 120 3.5 5.2 0.00 0.00 0.00 52 1023.6
20260507203525 64 110 1.7 4.3 0.00 0.00 0.00 52 1023.6
20260507202500 64 125 2.6 6.1 0.00 0.00 0.00 51 1023.9
20260507201412 64 109 1.7 4.3 0.00 0.00 0.00 50 1023.5
20260507200248 64 156 4.3 5.2 0.00 0.00 0.00 50 1023.7
20260507195254 64 135 1.7 4.3 0.00 0.00 0.00 55 1023.9
20260507194212 63 121 3.5 6.1 0.00 0.00 0.00 55 1023.5
20260507193029 63 109 3.5 7.0 0.00 0.00 0.00 54 1023.6
20260507192113 63 102 2.6 4.3 0.00 0.00 0.00 54 1023.5
20260507191053 63 113 2.6 5.2 0.00 0.00 0.00 53 1023.4
20260507190037 63 110 2.6 5.2 0.00 0.00 0.00 53 1023.5
20260507185100 63 104 3.5 4.3 0.00 0.00 0.00 53 1023.6
20260507184013 63 117 2.6 4.3 0.00 0.00 0.00 53 1023.3
20260507182829 64 145 3.5 5.2 0.00 0.00 0.00 53 1023.3
20260507181852 64 118 2.6 4.3 0.00 0.00 0.00 54 1023.3
20260507180812 64 111 2.6 4.3 0.00 0.00 0.00 54 1023.4
20260507175628 64 122 4.3 5.2 0.00 0.00 0.00 56 1023.4
20260507174652 64 76 2.6 5.2 0.00 0.00 0.00 57 1023.0
20260507173632 64 142 2.6 7.8 0.00 0.00 0.00 57 1023.0
20260507172428 65 165 3.5 6.1 0.00 0.00 0.00 56 1022.9
20260507171452 65 117 2.6 6.1 0.00 0.00 0.00 55 1022.7
20260507170452 66 119 2.6 8.7 0.00 0.00 0.00 55 1022.5
20260507165248 67 149 6.1 8.7 0.00 0.00 0.00 53 1022.7
20260507164312 67 169 0.9 5.2 0.00 0.00 0.00 52 1022.2
20260507163213 68 132 3.5 5.2 0.00 0.00 0.00 51 1022.4
20260507162028 68 167 3.5 6.1 0.00 0.00 0.00 49 1022.1
20260507161113 69 108 4.3 5.2 0.00 0.00 0.00 46 1022.3
20260507160012 70 121 2.6 4.3 0.00 0.00 0.00 43 1022.0
20260507154849 71 130 5.2 7.0 0.00 0.00 0.00 41 1022.4
20260507153913 72 133 2.6 6.1 0.00 0.00 0.00 38 1022.3
20260507152812 73 106 2.6 5.2 0.00 0.00 0.00 35 1022.3
20260507151628 73 182 4.3 6.1 0.00 0.00 0.00 35 1022.2
20260507150653 73 11 1.7 6.1 0.00 0.00 0.00 35 1022.2
20260507145632 73 94 6.1 7.8 0.00 0.00 0.00 34 1022.2
20260507144428 73 166 4.3 7.0 0.00 0.00 0.00 32 1022.2
20260507143452 74 111 5.2 7.8 0.00 0.00 0.00 32 1022.3
20260507142412 74 153 4.3 7.8 0.00 0.00 0.00 32 1022.3
20260507141247 74 164 7.0 9.6 0.00 0.00 0.00 32 1022.1
20260507140251 75 193 2.6 8.7 0.00 0.00 0.00 33 1022.0
20260507135211 75 158 7.8 13.0 0.00 0.00 0.00 32 1021.8
20260507134027 75 155 6.1 11.3 0.00 0.00 0.00 33 1021.6
20260507133231 75 136 7.0 9.6 0.00 0.00 0.00 37 1021.4
20260507130827 74 149 6.1 8.7 0.00 0.00 0.00 35 1021.7
20260507125851 75 141 5.2 7.8 0.00 0.00 0.00 34 1022.0
20260507124811 75 113 3.5 8.7 0.00 0.00 0.00 34 1022.0
20260507123627 77 133 1.7 7.0 0.00 0.00 0.00 38 1022.1
20260507122651 80 204 2.6 6.1 0.00 0.00 0.00 30 1021.9
20260507121611 80 4 1.7 6.1 0.00 0.00 0.00 30 1022.1
20260507120428 79 157 2.6 9.6 0.00 0.00 0.00 32 1022.3
20260507115451 78 154 5.2 7.0 0.00 0.00 0.00 35 1022.2
20260507114411 79 187 6.1 7.8 0.00 0.00 0.00 29 1022.0
20260507113247 80 186 5.2 11.3 0.00 0.00 0.00 32 1022.2
20260507112311 80 178 7.8 8.7 0.00 0.00 0.00 28 1022.4
20260507111211 79 176 4.3 6.1 0.00 0.00 0.00 30 1022.2
20260507110027 78 172 7.0 9.6 0.00 0.00 0.00 31 1022.0
20260507105111 79 137 3.5 9.6 0.00 0.00 0.00 31 1022.2
20260507104011 79 139 1.7 8.7 0.00 0.00 0.00 31 1022.1
20260507103055 80 127 5.2 9.6 0.00 0.00 0.00 30 1021.9
20260507102059 77 219 4.3 7.0 0.00 0.00 0.00 39 1021.7
20260507101019 77 150 5.2 9.6 0.00 0.00 0.00 48 1022.2
20260507095828 78 0.0 2.6 0.00 0.00 0.00 48 1022.2
20260507094852 76 176 3.5 6.1 0.00 0.00 0.00 52 1022.2
20260507093812 76 155 4.3 7.8 0.00 0.00 0.00 50 1022.2
20260507092628 77 138 6.1 8.7 0.00 0.00 0.00 45 1022.4
20260507091652 76 120 3.5 4.3 0.00 0.00 0.00 47 1022.4
20260507090613 76 136 4.3 6.1 0.00 0.00 0.00 48 1022.0
20260507085429 77 145 2.6 4.3 0.00 0.00 0.00 47 1022.3
20260507084452 77 160 0.9 5.2 0.00 0.00 0.00 47 1022.2
20260507083432 76 130 2.6 4.3 0.00 0.00 0.00 48 1022.1
20260507082332 75 228 2.6 5.2 0.00 0.00 0.00 48 1022.0
20260507081356 76 90 0.9 4.3 0.00 0.00 0.00 48 1022.2
20260507080316 75 208 2.6 2.6 0.00 0.00 0.00 47 1022.3
20260507075228 75 134 0.9 4.3 0.00 0.00 0.00 49 1022.1
20260507074312 75 82 2.6 2.6 0.00 0.00 0.00 47 1022.1
20260507073212 73 116 2.6 5.2 0.00 0.00 0.00 50 1021.6
20260507072028 72 167 3.5 4.3 0.00 0.00 0.00 51 1022.2
20260507071052 73 142 1.7 2.6 0.00 0.00 0.00 51 1022.5
20260507070013 71 178 3.5 5.2 0.00 0.00 0.00 53 1022.7
20260507064828 70 155 1.7 6.1 0.00 0.00 0.00 53 1022.4
20260507063913 69 180 2.6 5.2 0.00 0.00 0.00 53 1022.4
20260507062813 69 133 4.3 7.0 0.00 0.00 0.00 53 1022.4
20260507061629 69 103 3.5 7.0 0.00 0.00 0.00 53 1022.1
20260507060652 69 120 2.6 7.0 0.00 0.00 0.00 51 1022.2
20260507055612 69 151 3.5 5.2 0.00 0.00 0.00 52 1021.6
20260507054428 69 99 1.7 2.6 0.00 0.00 0.00 50 1021.7
20260507053452 69 153 0.9 1.7 0.00 0.00 0.00 49 1021.4
20260507052413 68 129 0.9 1.7 0.00 0.00 0.00 51 1021.6
20260507051228 67 119 0.9 0.9 0.00 0.00 0.00 54 1021.6
20260507050252 66 97 0.9 1.7 0.00 0.00 0.00 56 1021.7
20260507045212 66 92 0.9 0.9 0.00 0.00 0.00 55 1021.9
20260507044028 64 90 0.0 0.9 0.00 0.00 0.00 56 1021.5
20260507043053 63 45 0.9 0.9 0.00 0.00 0.00 57 1021.7
20260507042012 61 89 0.0 0.9 0.00 0.00 0.00 61 1022.0
20260507040828 60 76 0.9 0.9 0.00 0.00 0.00 63 1021.9
20260507035852 58 0.0 0.9 0.00 0.00 0.00 66 1022.0
20260507034812 59 0.0 0.0 0.00 0.00 0.00 65 1022.1
20260507033628 58 0.0 0.0 0.00 0.00 0.00 67 1022.3
20260507032652 57 82 0.9 0.9 0.00 0.00 0.00 69 1021.9
20260507031612 58 0.0 0.0 0.00 0.00 0.00 69 1021.9
20260507030428 58 0.0 0.9 0.00 0.00 0.00 69 1022.0
20260507025452 58 66 0.9 1.7 0.00 0.00 0.00 69 1021.9
20260507024412 58 76 0.0 0.9 0.00 0.00 0.00 69 1021.9
20260507023228 58 37 0.9 1.7 0.00 0.00 0.00 67 1021.8
20260507022252 58 64 0.9 1.7 0.00 0.00 0.00 67 1021.8
20260507021212 58 45 0.9 0.9 0.00 0.00 0.00 67 1021.9
20260507020028 57 83 0.0 0.9 0.00 0.00 0.00 68 1021.7
20260507015052 57 0.0 0.0 0.00 0.00 0.00 66 1021.7
20260507014012 58 72 0.9 0.9 0.00 0.00 0.00 65 1021.7
20260507012828 58 157 0.9 0.9 0.00 0.00 0.00 64 1021.2
20260507011852 58 0.0 1.7 0.00 0.00 0.00 64 1020.9
20260507010812 58 98 0.9 0.9 0.00 0.00 0.00 65 1021.0
20260507005628 58 93 0.9 1.7 0.00 0.00 0.00 64 1021.1
20260507004652 59 94 0.9 0.9 0.00 0.00 0.00 62 1021.0
20260507003632 59 94 0.9 1.7 0.00 0.00 0.00 61 1020.8
20260507002428 59 107 1.7 4.3 0.00 0.00 0.00 62 1021.1
20260507001452 59 93 0.0 1.7 0.00 0.00 0.00 63 1021.0
20260507000413 60 92 0.9 0.9 0.00 0.00 0.00 61 1021.1
20260506235248 60 64 0.9 0.9 0.00 0.00 0.00 61 1021.6
20260506234252 61 0.0 0.9 0.00 0.00 0.00 59 1021.5
20260506233212 62 18 0.9 1.7 0.00 0.00 0.00 58 1021.7
20260506232028 60 0.0 0.9 0.00 0.00 0.00 60 1021.7
20260506231052 60 74 0.0 0.9 0.00 0.00 0.00 61 1021.8
20260506230013 60 0.0 0.9 0.00 0.00 0.00 60 1021.7
20260506224828 60 91 1.7 1.7 0.00 0.00 0.00 61 1021.7
20260506223913 60 0.0 0.9 0.00 0.00 0.00 61 1021.7
20260506222832 61 108 0.9 0.9 0.00 0.00 0.00 59 1021.7
20260506221628 62 0.0 0.0 0.00 0.00 0.00 58 1022.0
20260506220712 62 25 0.9 0.9 0.00 0.00 0.00 57 1021.7
20260506215612 62 0.0 0.9 0.00 0.00 0.00 58 1021.9
20260506214428 61 0.0 0.9 0.00 0.00 0.00 59 1021.9
20260506213452 62 68 0.9 0.9 0.00 0.00 0.00 57 1022.1
20260506212412 63 0.0 0.9 0.00 0.00 0.00 54 1022.2